GFSNIL_sfc_rhum_000.txt.gz
RH
67 74 72 66 72 73 64 65 62 66 69 68 68 71 68 70 72 68 68 61 61 58
65 68 66 65 66 63 61 57 66 76 85 89 90 88 74 73 69 67 68 68 72 68
57 60 61 60 60 64 68 74 82 88 89 90 82 74 69 70 68 70 72 68 76 72
55 57 56 58 63 62 65 69 69 74 74 73 72 68 66 66 68 71 71 72 72 69
57 54 57 62 62 61 58 54 54 58 59 60 61 63 65 68 64 67 66 63 70 64
53 53 63 61 60 56 53 52 55 53 59 63 64 64 64 65 63 61 59 64 71 73
56 60 66 64 61 56 56 57 58 60 65 68 66 61 60 59 68 73 70 76 77 77
74 71 68 64 66 66 62 62 65 67 65 66 62 52 78 77 79 79 80 80 78 75
77 76 80 81 81 73 68 63 59 61 65 67 55 82 76 80 85 80 78 80 74 71
91 90 86 82 76 64 62 61 60 61 64 71 76 70 70 74 74 80 83 84 83 75
87 85 73 63 60 60 58 57 59 65 72 75 70 75 70 76 83 88 87 85 83 84
60 57 57 55 58 59 60 63 64 71 81 87 85 75 69 73 89 88 90 88 84 84
54 54 55 59 61 60 61 63 82 84 84 81 91 79 71 72 84 95 92 86 83 78
57 57 59 58 59 63 71 85 94 94 92 90 87 87 75 71 86 95 93 90 87 85

GFSNIL_sfc_rhum_003.txt.gz
RH
64 72 76 80 76 81 76 78 78 82 81 82 86 85 84 89 89 90 88 82 70 67
62 64 68 68 76 78 75 75 91 93 89 88 87 89 94 92 88 79 74 74 74 78
62 64 67 72 72 74 80 86 90 87 82 82 86 89 89 84 74 75 76 72 77 79
65 64 65 68 72 75 77 72 70 66 69 83 87 82 80 76 73 74 72 71 71 71
69 63 62 67 66 66 58 56 56 60 61 65 66 66 70 71 67 69 69 68 70 70
64 60 65 62 59 56 52 50 52 52 57 60 66 66 68 69 69 69 70 72 75 76
58 63 66 63 66 73 66 60 59 60 65 69 66 61 63 66 75 77 73 76 77 78
74 72 75 91 89 79 72 64 68 68 64 65 62 56 80 74 74 76 76 77 76 75
89 90 92 92 90 89 89 80 65 62 64 68 58 84 74 78 84 79 78 78 74 76
91 95 94 90 89 90 73 64 61 63 67 74 76 72 71 73 83 83 83 86 85 78
70 70 72 66 63 63 62 60 63 70 77 80 76 74 71 74 83 88 88 85 84 86
64 64 62 61 63 63 63 65 74 80 83 81 82 72 69 72 92 91 90 85 83 84
61 63 64 65 62 62 67 74 82 80 80 79 90 79 72 75 89 95 88 84 78 78
64 68 65 62 65 72 82 86 93 92 91 89 87 90 78 74 86 94 93 90 87 88

GFSNIL_sfc_rhum_006.txt.gz
RH
61 66 62 64 70 83 81 85 92 94 93 92 92 93 88 91 94 96 96 94 92 93
69 66 62 61 77 83 83 87 93 92 90 90 89 89 90 93 94 94 94 94 92 89
69 65 64 70 79 79 84 90 91 86 81 80 78 85 91 96 95 95 90 82 82 79
67 68 68 76 78 81 85 83 70 68 72 75 79 84 88 86 81 77 76 71 70 71
72 65 72 73 72 73 61 59 59 58 60 62 65 69 71 72 70 71 70 70 73 73
65 66 72 71 75 72 70 64 62 57 55 61 67 68 68 69 70 72 75 77 78 78
84 77 87 95 93 85 79 69 68 69 70 75 68 62 63 65 74 73 71 74 74 75
89 92 95 95 93 90 89 86 87 87 71 67 62 54 75 72 72 75 77 75 70 69
90 88 88 90 91 91 90 88 95 86 69 71 61 76 74 77 84 80 76 78 72 72
73 79 82 87 93 90 81 72 67 68 74 78 78 73 71 72 79 83 83 82 82 76
70 71 69 65 64 66 64 64 68 74 83 82 69 69 68 70 81 87 86 84 82 84
68 68 68 68 67 66 67 69 80 81 79 78 77 73 72 73 91 92 91 83 83 84
70 74 75 69 68 66 74 77 76 73 78 78 89 80 76 76 89 94 94 89 80 77
76 77 69 71 73 77 82 83 92 93 92 88 86 90 78 73 86 95 93 92 88 87

GFSNIL_sfc_rhum_009.txt.gz
RH
55 52 52 52 53 55 55 57 69 68 66 68 68 70 71 76 88 90 94 94 96 97
58 58 58 59 57 56 62 63 69 68 68 68 69 72 73 81 89 89 94 95 94 91
58 58 58 55 60 62 64 70 72 64 58 56 58 56 67 70 72 76 75 69 75 72
62 56 53 58 62 63 67 60 53 51 52 58 64 62 62 63 60 59 58 59 57 56
55 51 57 60 58 59 54 52 52 53 64 70 66 55 55 56 52 49 48 47 51 47
60 58 71 74 73 70 68 64 66 73 83 80 63 54 51 52 51 52 52 55 57 56
71 72 75 76 75 74 70 68 76 79 76 84 68 51 46 46 53 55 54 58 56 54
77 76 83 67 62 65 63 63 67 74 70 55 51 44 58 56 58 58 58 56 52 53
58 55 58 62 65 65 60 54 52 52 55 59 51 79 78 72 58 57 55 56 54 52
62 54 52 48 46 48 51 51 51 54 58 60 57 65 66 68 54 55 57 56 54 50
56 51 51 50 49 50 49 51 52 59 57 52 47 66 68 69 63 67 64 58 56 57
53 52 53 52 51 51 52 53 56 51 53 53 55 66 70 71 74 74 72 62 61 60
54 53 52 53 52 52 52 52 54 55 55 64 72 70 74 71 73 82 72 70 66 71
51 54 54 52 52 50 50 66 80 84 80 75 71 74 72 70 79 81 79 75 69 74

GFSNIL_sfc_rhum_012.txt.gz
RH
44 43 42 42 42 42 41 43 49 54 52 52 52 53 60 77 80 86 93 93 95 96
49 48 47 46 45 43 48 44 55 56 55 52 53 54 57 72 76 73 71 81 83 80
48 46 45 46 48 51 52 55 58 57 48 50 61 71 77 70 60 66 70 60 56 50
48 46 46 48 49 50 51 45 44 44 52 67 84 86 81 67 53 50 47 45 42 39
47 45 48 51 52 54 54 50 50 64 75 87 87 69 63 60 51 45 44 43 41 38
48 50 54 54 57 56 59 61 70 75 78 80 71 63 55 53 48 44 43 41 41 40
57 60 60 53 50 50 51 54 54 52 53 52 44 40 40 39 43 44 41 45 48 47
50 46 43 44 43 43 44 38 37 38 40 42 41 37 55 48 48 45 46 47 43 45
45 43 43 44 42 39 36 36 38 39 41 44 34 67 66 62 47 43 41 42 41 41
46 45 42 37 32 34 39 41 43 43 44 46 44 63 66 67 48 46 46 46 43 39
43 42 36 33 34 39 40 42 42 45 45 45 40 61 66 68 56 54 52 47 44 44
42 40 33 35 39 41 42 43 43 44 46 47 48 64 66 67 66 62 59 52 53 59
40 38 35 39 43 43 40 42 45 55 55 61 64 65 68 66 68 84 77 68 63 71
38 36 37 41 42 42 43 54 77 88 76 69 67 64 64 65 77 82 79 73 71 64

GFSNIL_sfc_rhum_015.txt.gz
RH
41 40 40 43 43 42 42 44 44 46 51 59 65 70 74 84 87 84 80 77 80 87
42 45 45 46 45 44 46 41 50 59 66 64 71 69 68 70 77 75 75 75 77 73
43 44 43 44 46 46 46 45 46 52 58 65 68 68 70 72 70 72 76 75 75 75
40 42 42 42 44 53 52 52 52 52 60 69 71 70 75 83 76 78 63 56 53 51
36 38 40 46 54 54 58 52 54 66 76 66 66 69 77 75 62 61 62 60 56 50
35 40 50 55 52 45 46 45 44 48 57 58 56 43 38 38 44 43 45 45 44 41
39 42 47 44 42 40 37 35 33 32 34 36 34 33 34 39 42 42 39 42 41 41
38 40 42 43 40 37 35 31 30 33 34 35 34 32 48 46 46 45 43 43 37 41
38 45 46 42 39 32 32 31 34 36 37 38 29 70 65 61 50 45 43 43 41 39
43 46 43 37 29 30 34 36 38 38 37 40 40 61 64 68 52 50 49 47 44 39
42 43 38 34 30 34 35 38 39 40 41 45 42 68 68 68 56 54 51 48 46 46
42 45 38 34 34 36 37 39 38 40 49 54 56 67 70 65 64 62 59 51 54 56
36 38 39 35 37 38 36 36 42 52 55 65 64 71 64 66 69 80 71 65 58 67
53 48 38 36 37 36 37 48 71 86 73 64 68 64 62 64 74 73 82 73 72 69

GFSNIL_sfc_rhum_021.txt.gz
RH
65 73 70 66 68 70 78 78 73 76 84 82 84 85 86 90 90 92 94 94 97 93
63 66 65 64 72 80 76 61 70 76 79 77 80 83 84 91 94 94 95 96 94 95
57 58 63 75 73 73 72 71 70 74 79 83 84 86 87 91 89 94 96 93 94 94
54 57 70 72 72 69 71 70 68 74 73 76 83 83 86 86 86 90 90 86 82 81
52 55 66 68 68 67 68 65 66 63 58 60 60 65 72 76 72 70 68 69 70 67
50 57 63 64 68 63 64 62 57 54 58 59 63 59 62 67 69 69 66 68 67 63
54 57 61 62 62 61 60 57 51 53 56 60 58 59 62 61 71 71 66 71 70 65
57 58 61 65 71 65 59 56 50 52 58 60 56 54 73 72 76 77 76 73 64 64
67 64 69 76 68 76 58 51 53 56 59 65 50 74 70 74 81 75 74 74 67 69
67 72 76 79 81 71 53 56 60 61 66 70 75 74 69 73 79 81 78 78 75 63
69 74 81 83 81 68 59 56 62 69 74 77 64 74 76 81 90 88 84 80 76 74
84 89 91 93 98 88 69 70 75 80 83 86 84 78 82 89 97 93 87 77 72 71
73 86 88 92 86 80 68 78 84 85 88 82 87 77 66 86 98 98 92 86 78 74
87 92 92 92 89 71 74 88 93 93 90 84 83 80 67 72 88 88 93 86 82 82

GFSNIL_sfc_rhum_024.txt.gz
RH
71 74 70 68 72 82 80 78 73 79 85 87 86 83 89 93 94 94 96 96 97 98
70 70 71 72 80 80 77 69 69 76 83 86 88 89 91 95 93 94 95 95 96 97
58 65 72 80 78 77 75 73 73 69 76 81 87 89 91 93 91 92 94 94 90 92
56 59 76 76 76 75 73 74 71 70 75 65 69 72 79 84 82 82 75 73 75 74
55 56 74 76 77 77 72 69 64 66 57 58 60 64 68 74 72 72 73 73 74 71
52 56 66 72 74 76 76 70 76 56 56 58 62 65 70 71 72 73 73 75 76 74
63 62 67 70 69 75 83 83 67 54 55 61 64 64 65 67 74 76 72 77 77 77
69 68 66 69 75 86 86 78 74 59 58 62 65 58 75 73 75 77 77 77 74 69
71 74 81 85 88 90 89 85 64 63 65 69 55 76 70 75 84 77 76 81 73 75
80 79 82 86 90 87 93 94 87 69 71 77 76 74 74 80 84 86 88 86 82 74
85 86 90 95 92 97 98 97 72 81 83 81 68 78 84 84 95 96 94 89 84 80
80 88 95 93 90 98 92 79 84 83 83 87 88 70 70 89 97 91 88 79 79 74
83 89 95 95 94 91 81 82 84 84 88 76 85 68 66 70 99 97 88 85 73 73
75 86 87 92 92 86 91 88 94 89 88 83 79 80 64 65 85 88 92 85 82 82

GFSNIL_sfc_rhum_030.txt.gz
RH
72 76 75 71 75 78 79 80 79 78 81 89 91 94 93 96 96 94 96 94 96 97
77 80 81 79 83 85 83 77 83 83 79 88 88 90 93 95 96 94 95 96 96 96
70 70 73 80 82 83 87 86 82 83 76 78 82 78 88 91 87 92 93 94 83 79
69 68 70 74 80 85 87 84 82 82 82 83 87 81 82 80 78 82 76 74 75 77
66 69 70 73 76 82 87 86 85 83 87 89 85 78 74 74 73 74 72 74 76 76
69 73 77 78 79 79 82 87 90 89 88 86 78 72 72 74 71 70 74 77 78 77
78 79 81 80 80 87 91 94 93 87 95 87 73 67 66 67 73 78 76 78 79 80
78 79 81 84 90 94 95 92 83 79 84 84 70 61 73 78 84 86 86 83 80 81
80 82 86 91 96 93 92 88 92 93 90 78 63 77 78 86 91 86 86 86 79 79
81 87 88 93 95 88 95 96 96 88 81 80 85 79 69 78 81 81 81 77 74 69
80 84 89 92 87 91 93 87 93 87 81 83 76 66 64 73 86 86 81 75 76 76
82 84 88 90 91 95 97 96 87 81 83 78 73 66 64 69 88 86 81 73 74 73
78 81 86 88 91 95 95 86 83 76 82 70 80 68 64 69 94 97 89 84 76 77
79 85 81 84 91 92 92 86 93 90 88 80 76 80 67 69 93 92 90 88 85 82

GFSNIL_sfc_rhum_033.txt.gz
RH
54 53 54 58 56 56 56 56 62 63 63 61 64 68 70 66 69 75 76 72 69 71
58 58 58 58 60 58 60 54 58 64 64 62 63 63 64 63 65 68 70 71 71 69
52 52 53 55 56 55 55 56 58 58 60 63 62 63 66 68 60 61 67 65 66 60
49 51 52 51 53 54 57 53 58 61 65 65 69 72 68 65 59 58 57 56 56 55
48 48 50 52 52 54 54 58 60 66 66 69 76 80 64 56 58 58 58 54 55 55
50 51 53 52 54 58 62 66 72 72 73 70 64 62 58 58 58 54 56 57 58 56
56 55 55 56 60 67 72 71 70 71 78 82 67 58 55 52 56 60 59 60 60 59
58 57 59 61 66 73 71 66 72 72 73 62 53 50 62 62 61 58 54 53 49 50
58 59 62 63 70 76 72 73 75 75 64 60 53 79 71 68 56 51 47 47 46 45
58 58 61 61 66 66 72 73 80 70 60 58 61 66 64 76 54 51 49 48 48 47
56 60 59 60 60 64 76 76 76 66 60 57 50 64 64 66 52 53 50 50 51 51
59 61 59 60 64 64 70 80 80 63 60 55 50 63 63 62 63 62 59 55 53 55
60 60 61 62 61 66 74 80 65 61 59 64 61 63 64 64 69 80 68 60 53 62
59 61 62 62 59 62 64 70 75 76 69 63 64 62 65 68 76 72 70 64 59 56

GFSNIL_sfc_rhum_036.txt.gz
RH
39 34 34 39 41 41 40 39 41 40 39 39 40 45 52 53 54 52 56 62 64 52
41 41 40 42 40 36 37 30 34 38 37 37 39 44 48 54 56 49 49 58 62 48
39 38 36 36 36 36 35 35 37 38 39 41 43 45 51 55 60 55 52 52 51 47
34 34 34 34 35 36 39 38 39 41 44 44 46 52 69 80 73 52 51 53 51 49
30 30 33 34 35 40 42 42 43 47 47 48 56 57 53 55 56 55 54 48 46 45
31 32 34 36 40 42 43 45 48 48 57 58 60 60 59 56 49 47 47 47 48 47
35 37 38 41 43 44 46 49 47 50 57 61 53 49 45 43 47 47 45 48 46 44
39 41 41 46 45 47 52 50 49 55 57 52 45 41 53 47 46 46 44 42 36 39
44 42 45 46 48 50 51 49 53 53 53 52 38 76 65 66 45 41 39 38 37 38
43 44 44 43 43 44 48 52 59 58 55 53 52 62 62 63 43 41 41 40 40 38
42 42 42 43 45 49 52 54 59 64 58 54 48 62 61 64 46 46 46 44 44 44
40 42 43 45 51 51 48 50 61 61 56 55 52 61 61 62 54 53 52 46 44 46
40 43 45 49 52 50 48 50 64 59 57 58 57 64 62 60 62 78 61 50 45 55
38 44 48 51 49 48 48 54 62 71 62 59 60 57 65 64 74 69 64 56 51 49

GFSNIL_sfc_rhum_039.txt.gz
RH
36 34 32 31 34 34 34 33 34 34 35 35 35 37 40 41 47 50 66 63 51 46
48 36 32 35 36 32 34 28 31 35 36 35 37 39 41 42 46 56 59 63 54 53
41 34 32 33 33 33 34 33 34 35 36 39 40 40 42 48 54 56 64 54 52 50
34 32 31 32 32 32 35 34 33 35 40 40 39 49 57 56 52 54 54 56 52 53
31 27 30 31 30 33 36 35 35 38 40 42 46 49 54 57 58 56 55 49 44 40
28 30 30 28 32 35 36 37 39 38 42 46 52 55 55 51 52 47 43 40 41 40
28 30 30 31 36 38 38 41 41 41 43 49 49 44 43 38 44 43 37 40 41 40
28 31 33 38 40 39 42 43 41 42 46 50 43 36 50 44 44 42 40 40 35 36
28 33 36 39 42 41 41 40 40 44 49 53 39 76 64 64 48 44 39 40 38 37
33 36 36 34 36 37 42 44 47 53 57 53 52 66 62 61 48 46 43 43 42 38
33 34 33 34 37 42 45 48 46 53 62 57 50 67 62 62 52 46 45 45 43 42
30 32 34 36 40 45 45 46 47 52 59 59 57 66 62 61 54 52 51 46 43 44
31 33 34 38 42 45 44 42 43 52 59 66 60 69 65 61 62 70 61 51 45 61
32 34 38 42 44 45 44 48 62 72 68 62 64 63 68 64 66 68 65 59 53 49

GFSNIL_sfc_rhum_042.txt.gz
RH
52 53 54 54 49 54 54 56 53 53 55 55 56 58 61 66 68 66 81 81 83 78
52 50 52 50 47 53 51 39 54 55 54 55 58 60 63 67 70 76 79 85 84 77
53 52 49 46 48 46 48 48 52 53 53 56 58 60 71 74 71 72 81 74 71 70
52 50 46 46 45 45 47 48 48 49 52 54 58 64 68 70 68 70 72 71 69 67
51 46 46 45 44 45 48 50 48 50 51 52 56 62 66 70 68 70 70 67 62 58
47 40 42 42 42 44 49 50 52 50 55 55 61 60 64 66 64 62 61 59 57 58
45 42 43 40 44 49 51 52 54 55 56 58 57 55 54 51 58 60 54 58 57 56
41 42 42 46 50 53 55 52 54 56 57 58 56 47 62 58 62 64 61 59 51 51
38 39 46 49 54 56 55 53 56 58 60 64 48 77 69 65 65 62 61 62 58 55
38 43 48 45 44 48 54 60 64 63 63 68 68 73 66 63 62 66 69 64 63 54
40 43 44 44 46 53 58 62 64 65 67 73 64 77 69 65 68 70 67 66 64 63
38 40 43 45 53 57 59 63 63 59 67 74 77 76 69 67 74 75 73 65 66 61
40 42 44 49 55 59 59 57 59 65 70 74 83 77 71 69 91 89 88 77 67 68
38 42 46 53 57 59 60 67 74 76 80 81 81 84 74 71 84 92 91 86 82 84

GFSNIL_sfc_rhum_045.txt.gz
RH
57 62 60 60 57 60 59 58 56 57 58 56 58 62 65 71 78 82 89 86 87 86
61 61 59 56 54 56 55 48 54 53 54 56 60 64 77 83 83 82 87 89 88 85
61 58 54 55 52 52 53 50 52 52 55 58 64 69 73 79 76 80 85 81 79 79
60 56 54 51 53 50 52 51 50 52 54 58 66 66 73 74 74 75 78 76 74 73
55 56 49 49 53 52 51 52 52 53 55 59 63 66 65 72 76 76 75 71 70 65
61 54 50 50 50 54 55 54 53 53 60 61 66 61 65 71 72 66 66 63 64 61
56 51 46 49 52 58 56 54 53 58 62 66 60 58 62 60 64 64 63 65 65 66
55 51 50 54 55 58 57 51 55 60 65 65 61 54 65 60 65 65 66 68 63 58
51 50 56 55 56 56 57 57 59 61 64 66 55 76 70 67 66 64 66 71 71 65
51 50 52 48 48 49 54 59 64 64 65 72 73 78 74 69 64 68 74 77 73 63
50 47 47 49 50 56 61 65 64 68 68 76 70 81 78 72 67 70 76 76 72 72
54 53 52 53 64 64 62 67 68 64 70 80 82 83 80 72 74 77 78 75 73 75
53 54 59 62 64 64 63 63 66 68 75 78 89 83 79 75 89 90 89 82 77 67
58 57 58 62 61 59 64 69 80 83 83 81 88 90 81 77 87 88 90 92 90 88

GFSNIL_sfc_rhum_048.txt.gz
RH
72 75 78 70 62 62 63 66 61 67 60 58 62 71 80 85 88 84 91 86 89 92
66 67 69 59 59 61 63 60 67 58 56 61 72 74 77 82 80 83 88 89 86 87
65 64 57 58 61 60 60 57 58 60 55 63 72 68 74 77 80 79 85 82 82 82
66 66 66 62 62 59 63 63 55 55 55 59 70 68 71 72 74 80 80 79 78 75
58 64 64 62 63 63 59 58 55 56 55 59 69 70 68 68 72 78 80 74 64 62
69 62 66 59 59 62 60 58 57 56 58 62 71 69 67 71 74 76 68 62 62 64
69 63 54 60 62 64 60 59 58 59 62 68 72 65 63 63 74 67 64 64 64 65
68 59 60 61 62 64 62 58 58 60 66 68 67 59 68 62 67 67 66 67 63 66
57 58 65 66 67 64 60 58 59 63 65 69 60 69 78 71 70 64 66 68 70 72
60 60 62 57 55 53 54 61 65 70 69 70 75 79 78 74 68 69 71 73 74 69
58 59 58 56 58 68 66 67 71 73 72 74 74 82 81 79 71 73 74 75 74 77
63 60 59 80 76 72 69 69 71 70 74 77 84 86 84 82 78 77 78 72 76 78
63 82 83 72 71 70 68 66 69 72 78 79 85 85 87 84 90 91 89 83 81 74
80 69 67 68 69 71 71 74 81 83 86 86 88 89 86 85 90 87 88 86 88 86

GFSNIL_sfc_rhum_051.txt.gz
RH
88 81 84 85 80 74 67 67 73 74 73 64 65 70 77 86 87 84 89 85 90 93
85 84 84 78 70 72 68 66 78 72 70 68 72 74 80 84 81 84 90 90 88 89
76 72 63 67 70 68 79 86 78 76 73 67 74 74 79 81 82 80 85 83 81 82
69 65 67 67 66 69 79 79 83 69 65 66 72 74 77 74 75 76 79 79 80 78
65 68 68 64 64 78 93 78 64 67 60 63 72 74 73 70 72 78 81 82 72 67
71 70 71 73 83 89 75 70 66 61 60 65 71 72 74 74 74 79 80 77 66 63
75 79 78 84 74 75 72 62 61 62 63 68 69 73 71 68 76 81 76 71 70 66
79 71 70 70 70 69 65 60 59 61 65 70 73 69 74 72 74 76 73 74 70 69
65 63 67 70 71 69 64 60 61 65 70 73 63 72 80 78 78 73 73 74 73 71
67 68 67 62 61 58 63 76 74 70 71 72 76 80 80 83 79 77 76 76 74 72
65 65 62 60 67 86 89 77 72 73 76 80 74 82 85 84 83 78 77 77 74 73
64 65 67 81 91 88 74 73 76 74 77 81 82 83 87 89 90 81 79 76 80 88
65 80 92 94 82 77 77 76 76 76 80 80 84 83 87 91 95 93 86 88 86 82
88 81 73 72 75 78 81 84 86 86 86 86 87 87 86 89 94 91 90 89 90 85

GFSNIL_sfc_rhum_054.txt.gz
RH
92 86 87 86 84 83 77 75 72 81 79 75 70 71 75 78 79 78 89 88 92 89
96 91 88 90 86 80 75 70 83 75 77 84 89 78 78 77 75 80 86 89 88 87
95 90 89 85 80 74 79 83 81 88 91 92 79 75 77 76 76 84 87 87 88 86
92 84 81 78 77 83 84 83 85 90 91 75 76 78 77 76 78 84 84 83 84 83
84 84 87 84 81 83 86 86 93 81 70 69 73 74 78 78 72 81 81 81 84 81
89 84 83 83 82 84 91 87 76 73 71 69 73 76 76 76 77 80 81 82 85 74
85 84 79 77 87 88 79 77 71 69 67 72 69 70 74 74 78 81 82 85 82 73
86 77 80 85 78 82 83 74 64 67 70 70 72 70 79 79 81 83 84 81 76 76
80 79 73 74 80 81 69 64 63 74 74 76 66 74 80 83 85 82 80 78 77 74
73 73 72 66 63 63 72 89 88 90 78 78 80 81 82 83 88 83 81 79 75 70
62 62 65 71 81 90 92 94 92 81 78 81 77 82 84 86 91 85 80 79 78 78
69 73 78 87 93 96 92 82 81 77 80 81 82 81 84 87 93 91 83 76 78 78
88 94 97 96 91 82 80 80 84 82 82 82 86 81 82 88 97 96 91 87 81 80
86 79 78 77 78 82 86 88 89 88 88 87 86 85 83 84 96 94 93 90 90 88

GFSNIL_sfc_rhum_057.txt.gz
RH
87 80 76 79 83 80 74 62 64 64 60 57 61 73 88 89 83 78 67 66 64 51
92 87 85 87 86 72 67 62 71 67 59 64 75 89 88 78 76 75 68 65 63 58
90 84 83 83 75 72 67 66 71 66 66 84 92 76 68 72 74 75 62 57 62 61
89 86 85 79 76 72 80 79 68 76 87 86 79 75 77 77 74 65 60 61 61 60
91 89 87 88 84 87 84 79 76 82 88 81 85 79 79 72 58 60 61 59 60 60
90 88 87 87 90 90 89 84 86 86 85 74 74 74 65 58 61 60 59 58 59 58
88 87 88 91 89 89 82 83 82 82 82 84 79 66 55 56 60 60 59 61 61 59
86 82 84 85 80 84 82 82 86 86 80 72 65 64 64 56 58 60 60 63 61 63
79 78 80 80 85 87 85 81 72 71 78 80 71 77 80 73 59 57 59 57 56 57
76 76 77 76 69 74 83 84 85 92 92 90 80 80 82 84 58 58 57 57 56 53
65 68 66 81 88 90 92 95 93 93 80 68 58 82 85 86 59 60 59 60 59 58
78 82 82 89 92 95 94 86 71 65 64 64 62 79 83 78 61 61 61 59 59 58
83 93 94 88 75 66 62 60 60 60 62 68 66 74 83 77 71 79 71 63 62 79
67 63 60 61 60 60 59 64 71 72 68 67 67 65 80 84 76 79 76 70 66 66

GFSNIL_sfc_rhum_060.txt.gz
RH
68 70 77 78 75 68 76 79 80 72 55 51 52 60 60 80 63 61 74 65 70 51
76 77 84 79 75 75 81 85 77 60 57 68 66 59 80 85 73 72 76 77 67 50
78 79 78 82 78 78 88 80 64 65 70 66 73 79 83 85 77 74 77 62 54 47
78 78 79 83 82 84 83 72 67 72 74 86 89 85 82 71 82 82 63 52 49 48
81 82 83 86 83 84 79 78 78 85 88 87 85 84 87 88 77 62 53 50 48 48
91 92 92 89 87 88 90 94 95 91 92 86 84 84 87 84 64 50 49 46 47 47
92 91 90 91 92 94 89 90 86 84 84 88 91 89 82 61 54 50 45 47 49 47
88 86 88 91 92 89 86 83 78 86 90 92 88 77 72 59 58 51 48 48 46 48
80 80 82 79 78 75 75 75 82 83 88 85 80 85 85 80 64 52 48 48 45 42
64 66 67 63 65 71 71 76 85 87 87 87 85 91 90 87 54 50 48 47 44 40
60 61 64 67 74 79 84 84 87 86 91 77 54 77 82 86 52 47 45 44 45 45
60 64 70 76 84 89 88 86 80 54 51 51 49 75 82 75 52 49 49 43 44 43
59 65 76 78 70 55 48 46 44 45 46 56 50 65 79 72 60 63 60 52 48 62
56 52 49 48 45 43 42 46 56 58 57 56 58 59 78 81 70 70 73 68 62 58

GFSNIL_sfc_rhum_063.txt.gz
RH
57 54 56 75 88 79 80 74 69 67 70 83 84 79 68 59 78 69 80 80 76 65
61 62 61 68 69 83 78 77 79 81 82 90 90 74 72 86 84 89 91 89 81 69
70 74 73 76 75 79 74 76 82 86 90 87 76 83 83 88 90 89 84 80 79 64
77 81 84 82 83 80 76 76 84 83 82 84 92 90 85 84 88 89 89 81 68 55
75 82 90 91 91 87 89 86 80 80 92 91 90 93 90 90 87 88 85 75 61 55
86 88 95 93 89 87 88 92 93 93 95 93 91 89 90 90 88 88 79 65 56 52
94 93 93 92 91 93 92 92 92 91 88 88 88 87 85 85 85 74 67 61 56 52
91 90 91 93 92 92 91 89 86 88 88 89 87 87 90 82 80 74 66 61 53 51
87 86 87 88 88 88 86 83 81 84 90 95 87 92 94 88 77 72 64 56 47 45
72 73 74 72 73 74 75 81 87 91 90 86 79 89 90 91 69 56 50 48 46 41
59 58 57 58 62 70 78 80 80 79 79 76 66 86 92 86 54 50 47 45 43 45
57 60 60 65 71 71 76 76 74 65 55 48 46 74 79 71 50 48 48 42 42 42
55 58 64 73 72 70 58 46 40 40 41 57 44 84 81 69 64 68 64 57 52 65
57 58 50 47 44 40 39 41 53 54 54 51 53 54 73 74 57 64 70 64 60 57

GFSNIL_sfc_rhum_066.txt.gz
RH
62 66 65 66 83 82 86 90 89 85 83 83 91 95 97 98 97 95 94 87 86 87
66 64 67 72 83 88 90 87 88 87 88 90 94 95 96 96 95 96 95 92 89 90
68 72 73 85 87 90 92 88 89 89 90 93 95 92 93 97 97 94 95 92 90 88
74 87 91 95 93 91 92 92 93 92 94 92 93 93 96 96 94 93 93 90 89 84
88 93 93 97 96 96 98 96 94 91 89 91 93 95 96 94 90 88 90 88 89 87
95 93 97 97 96 94 94 94 92 92 93 95 97 93 91 88 89 89 87 85 84 80
97 96 96 96 96 95 94 95 95 95 94 92 91 88 86 87 91 90 85 82 79 73
96 95 95 95 96 95 95 94 92 92 92 91 89 86 89 88 91 86 82 78 70 69
94 93 95 95 93 92 91 90 90 91 91 94 89 97 96 92 88 79 79 83 76 71
86 89 89 86 84 86 88 88 91 94 92 93 90 94 93 94 85 86 80 74 69 58
77 78 75 74 76 84 88 90 90 89 87 86 75 88 94 95 89 73 68 67 65 66
63 64 66 76 81 83 83 84 88 82 82 81 71 84 84 75 78 75 78 64 65 64
63 65 72 75 81 79 77 73 67 57 60 60 80 78 76 66 85 82 84 76 63 70
64 68 71 72 70 66 59 65 75 72 75 65 71 79 73 71 83 86 80 76 73 72

GFSNIL_sfc_rhum_069.txt.gz
RH
63 64 79 66 75 83 85 86 93 94 94 94 94 95 96 98 98 95 97 97 96 94
60 74 65 65 86 84 88 94 96 95 95 95 96 96 97 98 98 97 98 98 93 90
68 74 80 77 95 94 97 98 98 98 96 96 97 97 96 97 96 96 96 94 92 92
85 90 93 97 97 98 98 96 96 95 96 97 96 95 95 96 96 93 93 93 91 89
96 96 98 98 97 97 95 95 96 96 96 95 95 95 95 95 93 92 92 90 87 84
98 99 97 99 99 98 98 98 97 95 96 96 97 96 94 91 90 91 87 87 88 86
98 98 98 98 98 97 95 96 95 94 96 96 94 91 89 89 90 90 88 88 89 90
98 97 97 97 96 96 96 96 95 95 95 94 91 88 89 88 91 92 91 86 80 80
95 95 97 97 96 96 95 94 94 94 94 94 88 96 94 93 92 84 82 88 91 89
93 94 94 91 91 93 94 94 95 96 94 95 93 95 96 96 94 94 94 91 82 71
87 87 85 86 88 93 95 96 97 92 90 88 82 94 95 97 95 92 82 80 78 78
81 81 80 89 92 94 95 90 87 84 91 85 83 85 84 82 86 77 81 71 72 69
74 78 86 91 92 88 88 88 91 86 83 81 79 78 76 76 90 83 82 78 74 74
76 80 82 89 91 92 88 75 87 83 83 81 82 79 73 72 82 89 87 83 84 83

GFSNIL_sfc_rhum_075.txt.gz
RH
70 73 77 71 71 80 81 81 88 95 92 93 95 96 97 98 97 97 97 97 97 96
74 71 69 76 80 81 88 81 94 94 94 96 98 98 98 98 98 98 98 98 98 97
71 78 76 85 88 85 89 95 98 98 98 99 99 98 98 99 98 98 99 99 98 96
77 78 86 88 93 95 98 98 98 97 97 99 99 98 98 98 98 98 99 98 96 93
74 72 79 90 95 96 95 96 96 97 95 98 98 98 98 98 98 98 99 97 94 90
79 79 82 93 95 96 95 95 95 95 98 98 98 98 98 97 98 97 95 92 91 90
80 91 92 92 94 94 95 95 97 97 98 98 98 98 98 97 97 94 92 90 88 87
99 99 99 98 96 98 98 98 98 98 99 99 98 98 98 95 95 93 93 92 91 93
99 99 99 99 99 99 99 99 98 99 98 99 98 99 98 94 94 92 93 95 91 82
98 98 98 98 98 99 99 98 99 99 98 98 98 98 96 95 90 91 92 88 78 62
98 97 96 96 97 98 98 98 98 98 97 96 94 98 97 95 88 83 78 75 72 69
93 95 94 98 98 98 98 98 96 93 93 94 97 99 96 85 79 70 68 73 75 75
90 92 96 97 98 96 93 92 90 85 87 94 97 95 88 79 78 77 77 71 68 70
89 92 92 93 94 92 90 92 90 89 86 84 82 80 75 71 79 81 78 74 76 77

GFSNIL_sfc_rhum_078.txt.gz
RH
82 76 80 83 86 91 90 90 92 94 95 94 94 95 96 94 95 98 97 96 96 93
86 86 84 86 88 92 92 90 91 94 95 96 96 97 98 97 98 98 98 98 97 95
82 88 86 87 90 89 89 90 93 95 96 97 99 99 99 98 98 99 99 98 98 98
87 88 89 86 83 82 84 87 88 88 93 96 98 98 98 98 99 98 98 99 98 98
77 78 79 78 74 76 84 88 89 94 94 94 97 98 98 98 98 98 98 98 99 98
76 73 74 77 78 87 87 91 93 92 95 96 98 98 98 98 98 98 97 98 98 97
82 80 81 91 94 92 91 93 94 95 98 99 99 99 99 99 99 99 98 97 97 93
80 82 88 95 96 96 96 95 96 99 99 99 99 99 99 99 98 98 98 97 95 95
89 97 98 100 100 100 99 99 99 99 99 99 99 100 100 98 98 97 96 97 92 88
98 99 99 99 99 99 99 99 99 99 99 99 99 100 99 98 95 96 95 89 78 72
99 99 99 99 99 99 99 99 99 99 99 98 97 99 98 95 88 88 85 82 75 77
98 98 98 99 99 99 98 98 98 97 96 97 98 96 91 82 76 75 74 68 67 65
96 97 98 98 98 98 96 96 92 95 97 98 97 93 88 77 76 75 70 62 63 71
94 95 95 96 96 95 93 92 94 94 91 89 89 89 82 76 76 75 72 63 66 72

GFSNIL_sfc_rhum_081.txt.gz
RH
70 68 66 68 66 70 68 68 71 76 76 78 76 79 80 82 82 82 86 82 83 85
72 69 68 70 70 72 72 67 74 74 75 75 77 79 80 86 85 86 89 90 88 93
71 71 68 72 74 75 74 73 73 78 74 75 76 78 82 86 84 90 94 94 96 95
70 70 73 75 73 73 72 70 72 72 72 74 77 83 91 93 97 97 97 98 98 98
74 72 73 74 71 71 69 69 71 71 73 71 80 89 97 97 98 98 98 98 99 97
76 75 75 72 71 68 70 70 74 74 75 75 79 84 96 96 97 98 98 96 97 96
74 69 70 69 73 70 68 71 73 80 82 82 82 90 94 96 97 96 97 97 96 94
69 68 64 66 75 76 79 75 75 78 83 87 96 98 98 98 98 98 98 98 96 95
64 65 69 72 82 89 87 84 83 89 95 99 99 100 100 99 98 97 98 97 94 93
68 67 71 80 96 97 97 99 99 99 99 99 99 100 100 100 96 96 94 92 89 83
80 87 98 98 98 99 99 99 99 99 99 98 97 100 98 96 91 90 88 88 87 87
96 97 97 98 99 98 98 98 98 97 97 97 97 95 92 87 84 81 78 74 72 68
95 97 98 98 97 96 95 95 94 97 96 96 96 92 87 80 80 80 76 67 71 72
93 94 94 96 94 92 93 94 96 96 94 92 91 90 84 78 74 75 70 59 59 66

GFSNIL_sfc_rhum_084.txt.gz
RH
67 72 70 69 66 52 50 50 55 60 62 63 62 63 65 65 65 67 69 71 68 66
68 63 62 60 62 54 55 49 58 61 64 63 64 63 64 65 67 68 71 72 72 73
62 61 58 58 61 58 57 57 56 60 61 60 60 59 62 63 64 68 69 74 79 80
62 60 60 62 61 61 62 59 58 58 57 57 56 55 60 64 66 68 70 78 86 83
62 61 63 64 64 65 63 60 56 55 54 53 52 54 57 61 67 75 81 91 95 97
65 64 68 68 65 61 60 56 54 52 55 54 55 53 57 60 69 75 89 86 96 95
64 64 64 62 63 60 56 54 52 53 55 56 52 51 56 64 78 85 87 92 93 95
61 59 58 59 61 60 58 54 53 55 56 59 63 63 66 71 84 85 92 97 94 97
52 53 54 54 55 58 61 58 60 64 64 67 66 95 100 96 96 99 99 99 98 96
50 50 51 50 50 54 67 71 74 72 72 83 96 100 100 100 98 98 97 96 94 88
51 52 49 49 51 65 77 89 96 98 98 98 97 100 98 96 91 92 92 91 90 89
52 54 60 75 88 91 96 97 97 96 96 96 97 96 93 88 88 89 88 84 84 84
73 81 86 95 96 96 95 96 94 95 94 95 95 93 90 83 83 85 86 86 82 75
87 92 94 95 94 93 93 94 96 96 94 93 92 92 87 84 79 78 74 65 66 71

GFSNIL_sfc_rhum_087.txt.gz
RH
80 71 70 75 69 66 65 65 62 64 60 56 57 59 61 62 66 70 72 72 68 63
76 72 67 74 70 64 58 50 54 54 63 61 60 61 63 64 67 69 72 75 75 69
67 71 67 66 69 62 59 52 51 54 59 63 61 62 65 65 64 66 69 69 74 74
71 68 67 67 66 63 62 54 54 53 58 61 61 61 64 66 63 64 67 69 72 72
72 70 68 66 64 65 62 58 56 56 56 57 56 57 59 62 58 61 64 65 70 75
67 65 66 65 64 61 60 58 57 55 57 56 57 55 56 56 58 60 61 64 68 75
61 62 62 61 64 65 63 60 58 57 56 58 52 49 50 49 55 59 61 69 81 82
58 56 56 60 61 64 67 62 58 58 56 54 53 50 55 52 56 58 68 82 91 95
53 52 57 59 60 62 62 58 56 55 55 57 52 74 87 85 72 87 93 99 98 98
49 52 54 53 53 56 62 63 63 60 58 60 67 100 100 100 99 99 98 98 96 92
47 48 48 49 50 55 59 66 72 80 84 91 94 100 99 97 92 94 94 94 93 93
46 46 47 49 52 55 72 93 94 95 95 97 97 96 94 90 90 91 93 92 92 91
44 47 50 54 84 88 90 94 93 95 94 96 95 94 91 86 88 92 92 88 92 95
49 58 85 90 91 92 94 96 97 97 95 94 92 91 86 84 84 86 84 85 88 91

GFSNIL_sfc_rhum_090.txt.gz
RH
74 79 77 66 64 66 65 67 73 76 73 67 67 78 79 84 86 87 88 88 88 83
82 77 71 69 66 71 69 66 73 72 74 78 77 76 80 81 84 85 88 88 89 88
82 78 71 73 68 70 67 66 65 70 73 71 69 76 77 81 80 84 85 84 88 89
78 79 74 73 77 70 68 64 64 63 65 67 69 74 79 78 79 81 82 85 84 87
78 77 79 75 74 74 72 64 62 58 56 56 67 72 74 80 76 78 84 81 89 85
79 77 79 78 75 73 69 67 63 57 56 59 63 67 73 74 75 76 77 79 80 79
77 77 75 75 75 74 71 68 66 60 60 60 63 64 67 66 73 76 74 75 77 80
74 73 73 71 72 73 73 69 66 66 64 64 63 64 70 68 70 70 76 80 86 97
68 69 71 71 72 72 74 72 70 70 69 69 63 78 79 78 81 82 87 99 99 97
60 64 68 67 69 72 75 75 76 76 73 74 75 100 100 99 95 99 99 99 98 96
57 62 62 64 66 71 73 78 78 77 78 92 98 100 99 98 96 97 97 97 96 96
55 58 62 65 69 73 76 80 92 96 97 97 98 97 96 94 95 97 98 95 94 93
54 58 62 66 73 91 94 95 95 97 96 96 98 95 94 92 93 96 96 94 94 90
74 79 90 92 92 94 96 97 97 97 97 96 96 96 92 90 90 91 91 91 92 93

GFSNIL_sfc_rhum_093.txt.gz
RH
76 79 75 70 72 67 65 66 72 82 78 76 78 83 86 82 82 93 89 91 86 84
74 75 76 71 70 68 66 64 87 79 78 80 78 80 86 85 86 85 84 83 90 94
75 72 73 69 71 66 67 63 81 81 82 77 79 84 82 86 88 92 95 90 92 92
79 74 73 72 67 72 76 73 73 76 76 76 77 80 84 88 90 89 89 93 96 92
85 81 77 74 72 70 74 74 68 68 71 74 70 72 78 84 81 89 89 91 97 92
85 86 83 81 77 70 72 72 69 64 68 67 71 73 76 78 82 91 91 89 93 89
82 82 83 81 79 81 77 73 70 65 66 66 63 66 77 76 80 83 86 88 90 88
73 73 77 81 81 79 80 77 75 71 68 64 62 59 73 74 81 86 87 89 94 98
79 78 83 85 84 84 82 80 75 77 73 70 62 70 77 74 82 89 88 98 99 98
78 80 80 81 81 86 88 84 80 76 77 78 73 86 84 90 89 96 99 99 99 97
77 80 78 79 80 79 80 85 88 84 81 89 99 100 100 99 98 98 98 98 96 97
69 74 78 81 81 82 85 86 95 97 99 98 99 99 98 97 98 98 98 97 96 96
77 72 76 80 90 98 98 98 97 98 98 98 98 97 96 94 95 97 96 94 96 96
82 79 84 97 95 96 98 97 98 97 98 98 96 97 93 91 91 91 91 93 95 96

GFSNIL_sfc_rhum_096.txt.gz
RH
87 83 81 80 81 80 83 88 90 89 88 84 81 82 88 85 83 91 87 88 90 92
85 80 77 78 74 74 76 73 74 76 80 84 82 81 80 84 85 92 92 87 91 93
81 79 75 72 80 74 73 69 84 79 82 86 82 77 78 81 90 90 92 89 92 92
75 78 77 74 72 75 73 73 81 78 82 81 78 79 83 78 81 92 93 92 92 88
76 75 78 76 70 74 72 75 73 78 76 81 78 82 86 84 81 87 90 90 94 91
83 79 78 77 74 69 78 78 77 74 76 73 75 82 80 77 81 86 86 85 92 89
87 83 79 76 74 74 75 77 76 75 73 72 72 70 72 77 82 84 85 86 89 89
80 84 84 81 78 78 78 78 75 73 72 73 70 67 71 72 73 77 84 90 91 93
76 80 85 85 84 83 86 82 78 78 74 74 67 74 81 79 88 90 90 90 100 99
79 78 79 82 85 85 84 85 88 85 81 78 75 82 81 83 76 87 91 98 99 99
83 83 78 78 80 85 85 86 86 88 85 84 84 93 87 86 85 99 99 99 98 98
86 85 85 86 87 86 89 92 91 88 88 86 99 100 100 98 99 98 98 98 97 96
85 87 88 88 89 90 89 92 99 100 99 100 99 99 98 96 97 98 97 97 98 99
96 94 91 91 97 99 99 98 99 98 98 98 98 99 97 95 96 95 96 95 97 96

GFSNIL_sfc_rhum_099.txt.gz
RH
92 86 85 86 87 90 92 94 95 95 92 93 92 88 90 86 87 87 85 82 79 83
91 88 87 88 84 85 90 94 96 93 94 90 92 93 95 97 91 88 89 85 90 89
89 86 85 81 83 82 82 90 95 93 92 93 92 92 92 89 89 91 94 93 91 94
89 87 86 84 81 81 79 81 84 85 88 88 88 86 87 80 80 90 89 95 94 93
90 86 86 83 81 78 79 81 79 81 82 86 88 87 84 80 75 86 91 90 96 92
87 88 86 84 79 78 76 77 82 79 83 83 86 85 81 78 76 76 80 81 91 90
87 84 84 80 77 76 75 79 80 78 78 83 82 79 80 80 80 80 80 79 83 84
88 83 82 81 79 76 76 76 79 77 78 78 76 75 80 80 83 90 92 92 89 89
89 88 87 85 81 81 79 77 80 79 80 83 74 80 84 79 82 88 91 92 95 100
85 89 87 85 83 83 83 82 83 83 81 81 81 86 87 88 78 87 88 85 95 99
85 86 86 85 87 87 85 87 88 87 87 85 82 89 87 87 84 86 93 94 99 98
88 88 86 88 89 90 90 90 90 90 91 91 89 97 91 89 90 99 99 99 99 98
95 89 88 86 87 87 88 92 92 92 99 96 91 100 100 95 97 99 98 98 99 98
92 96 96 91 91 92 93 100 99 99 99 99 99 99 98 98 98 98 97 97 97 97

GFSNIL_sfc_rhum_102.txt.gz
RH
96 93 93 93 91 94 95 97 98 95 91 88 89 84 87 88 90 89 86 85 82 85
96 95 92 94 93 93 93 95 97 96 92 93 92 91 89 85 84 91 90 84 84 81
96 96 96 95 95 90 94 94 95 95 96 94 92 88 89 92 90 93 93 92 87 87
96 95 95 93 90 89 92 94 94 91 92 93 93 90 88 88 91 92 91 89 87 89
95 94 94 94 91 85 91 91 91 90 90 90 88 90 87 87 86 86 89 89 89 85
96 94 93 92 91 86 87 89 88 87 90 92 90 92 89 86 86 86 83 91 91 86
96 94 93 91 90 88 84 84 90 85 85 90 91 89 87 85 85 85 79 81 90 86
92 93 93 92 89 90 88 82 83 88 88 87 88 87 87 83 84 82 78 77 83 87
88 91 93 93 92 88 84 83 81 81 86 91 84 91 93 89 88 88 87 87 89 88
87 88 92 91 90 86 83 82 85 83 80 83 84 90 92 94 89 92 92 91 92 100
90 91 90 90 87 86 85 87 86 88 86 84 85 92 90 90 87 90 90 89 89 93
94 89 90 94 94 90 91 91 91 88 90 90 88 95 92 92 89 90 98 100 99 98
89 94 96 90 91 93 92 93 94 94 96 96 92 98 95 93 88 95 99 100 100 99
88 91 94 97 97 94 96 98 99 98 98 98 98 98 98 99 93 97 99 98 98 98

GFSNIL_sfc_rhum_105.txt.gz
RH
79 74 72 77 80 84 78 88 86 95 93 89 90 87 83 84 84 84 81 80 71 70
79 75 72 77 82 83 84 84 89 95 94 90 90 92 85 85 87 87 90 88 87 76
81 77 75 79 84 82 81 83 86 96 92 90 93 90 88 89 88 88 90 89 90 86
84 80 79 81 82 80 82 83 89 94 92 93 93 92 91 88 84 88 88 90 92 89
86 82 82 82 81 81 87 86 87 90 91 91 90 90 90 87 83 85 90 89 89 84
89 85 84 82 80 78 82 90 86 90 91 90 90 88 85 82 78 77 83 86 86 80
91 84 81 79 78 78 76 84 88 90 90 91 90 88 83 85 84 79 80 82 85 80
86 83 80 80 78 76 77 74 77 83 85 88 89 88 92 86 87 88 88 90 87 85
85 85 84 81 79 79 77 73 76 80 82 84 77 97 98 92 90 88 88 88 85 81
87 86 85 81 78 77 77 75 75 78 81 85 82 97 97 97 74 83 86 85 83 83
90 89 86 82 81 81 77 83 81 82 83 85 86 96 96 96 78 78 77 77 76 79
92 93 91 90 89 83 84 86 85 84 86 86 86 97 95 96 88 86 88 81 79 77
86 89 91 95 98 91 89 90 90 96 98 98 96 98 99 94 90 94 98 99 100 99
86 87 89 92 94 97 98 98 97 97 98 97 98 98 97 99 97 100 98 97 98 98

GFSNIL_sfc_rhum_108.txt.gz
RH
67 57 55 57 57 66 71 70 94 94 89 91 89 88 90 92 93 91 90 89 80 71
72 60 57 59 60 64 66 71 78 94 93 92 91 88 91 92 94 93 89 91 85 74
74 62 58 60 73 71 74 69 75 87 92 92 92 89 91 91 88 92 92 90 86 91
70 63 63 65 74 77 70 66 70 76 93 91 91 92 90 89 92 91 91 92 91 88
73 65 69 71 75 78 74 68 69 78 91 92 94 92 90 89 89 87 88 87 88 90
84 73 73 72 73 74 73 68 72 75 88 92 94 93 92 88 90 87 84 84 83 84
89 77 73 71 74 73 76 75 77 74 76 82 86 86 86 84 85 87 87 86 82 82
87 74 69 70 72 71 73 77 72 78 77 81 83 82 86 84 83 81 81 85 80 80
84 76 74 72 73 76 74 70 78 83 85 86 79 99 99 90 87 81 77 78 82 84
76 78 76 72 71 74 75 72 74 72 80 86 86 100 100 100 84 91 87 84 87 94
85 81 75 74 74 72 70 71 71 76 76 77 80 99 100 100 84 92 90 88 88 90
89 90 88 87 82 76 74 73 71 71 75 81 86 100 99 98 90 82 83 77 77 79
86 87 91 93 95 94 87 88 90 92 95 98 94 98 100 98 95 96 99 99 99 99
84 88 89 91 93 96 97 95 97 97 97 96 97 96 98 100 95 100 99 98 98 98

GFSNIL_sfc_rhum_114.txt.gz
RH
78 78 74 72 69 78 80 84 86 89 91 93 94 94 93 95 95 93 93 92 94 97
81 83 75 74 77 73 72 72 84 90 90 92 91 94 95 96 96 95 94 93 93 93
77 77 78 79 79 74 73 74 90 92 93 94 94 93 95 96 95 95 95 96 94 93
76 77 79 82 80 74 74 78 85 90 90 93 94 93 95 96 95 95 94 92 95 92
84 81 82 88 80 79 74 77 85 90 92 95 95 95 96 97 96 95 95 94 92 96
91 86 90 92 80 77 75 75 72 85 89 91 94 96 95 94 96 96 94 93 96 93
92 88 88 88 79 78 77 70 70 85 91 93 94 94 94 93 94 95 95 96 92 91
91 89 88 87 80 78 82 75 74 82 87 90 92 90 94 92 93 94 97 98 98 96
93 95 94 88 86 82 85 81 76 74 89 92 84 100 100 95 94 95 96 98 99 99
93 96 95 88 86 88 85 84 81 81 80 85 80 99 100 99 90 94 95 96 97 98
95 95 95 92 90 89 88 90 86 86 86 87 90 100 100 100 91 93 92 92 92 95
95 96 94 92 90 88 88 91 90 92 93 95 96 99 100 99 95 98 96 94 97 94
93 96 97 98 98 97 93 92 92 94 95 97 96 98 99 100 99 99 99 99 99 99
95 94 95 96 96 95 96 96 97 97 97 96 97 97 99 100 99 99 99 99 98 99

GFSNIL_sfc_rhum_117.txt.gz
RH
73 91 86 82 84 88 85 86 89 94 94 95 94 94 95 96 96 94 95 94 95 93
76 86 88 85 82 92 81 81 92 95 96 96 96 96 96 97 97 96 95 95 96 95
79 81 88 89 91 92 84 83 92 95 96 97 97 96 96 97 96 97 96 95 94 94
88 84 88 92 93 91 82 82 90 95 94 97 97 96 97 97 97 98 97 95 96 93
86 86 90 93 94 89 82 89 91 94 92 95 96 97 98 98 97 97 98 97 96 95
88 94 94 93 94 86 86 90 91 94 94 96 95 96 96 95 96 96 95 95 96 94
88 94 95 96 95 86 84 89 93 93 93 94 97 96 96 96 97 97 95 93 92 94
86 92 94 96 95 89 85 79 92 93 93 93 94 94 96 96 97 98 99 97 96 93
88 93 94 95 95 95 90 82 88 94 96 97 92 100 100 97 96 96 98 99 99 99
90 96 96 93 91 94 91 88 88 94 94 96 92 100 100 100 95 97 98 98 99 99
89 95 97 94 93 95 93 91 90 92 92 93 94 100 100 100 96 97 97 97 97 98
92 90 98 98 97 95 95 94 96 95 96 96 97 100 100 100 97 98 99 94 96 97
94 93 95 98 97 99 96 96 95 97 96 98 98 98 100 99 99 99 99 99 99 99
97 95 96 97 98 97 97 97 97 97 97 97 98 98 99 100 99 98 99 99 98 99

GFSNIL_sfc_rhum_120.txt.gz
RH
77 84 84 95 95 94 92 87 92 96 96 95 96 95 95 96 96 96 96 95 95 95
78 80 86 86 92 92 90 86 84 92 96 96 95 95 96 97 98 98 96 96 95 94
76 78 83 87 87 91 93 90 94 95 94 96 96 95 96 97 97 98 97 96 96 96
78 77 79 86 90 91 90 92 93 94 96 97 97 97 98 97 97 98 98 97 96 97
81 80 82 83 92 90 91 94 93 92 96 97 97 97 97 98 97 98 98 98 97 96
83 85 86 86 92 91 92 93 92 94 96 98 97 98 97 96 97 97 97 96 97 96
86 85 86 86 90 96 94 94 94 94 94 96 95 94 97 97 97 97 95 95 96 94
82 81 83 88 89 95 94 92 91 95 95 95 94 96 97 96 97 97 97 97 96 94
82 81 83 88 92 96 95 92 93 96 98 98 94 100 100 99 98 98 98 98 98 96
83 85 85 89 92 96 96 94 97 96 97 98 95 100 100 100 97 98 98 99 99 99
86 88 85 86 89 95 96 96 97 98 97 96 98 100 100 100 98 98 98 98 99 99
87 91 89 90 96 94 96 96 96 96 96 96 99 100 100 100 99 99 100 97 98 98
87 90 95 94 95 96 98 98 98 98 98 100 99 100 100 99 99 99 99 99 99 99
89 92 96 94 95 98 98 98 98 98 98 98 99 99 100 100 98 99 99 99 99 99

GFSNIL_sfc_rhum_123.txt.gz
RH
80 82 87 92 96 98 97 95 94 97 96 96 96 96 96 96 95 95 96 96 95 94
81 83 87 88 88 88 94 94 94 96 96 96 96 95 96 96 97 97 96 96 96 95
82 82 82 84 91 91 88 93 94 95 96 96 96 96 96 96 96 97 98 97 97 96
82 82 83 86 86 88 89 89 92 92 94 95 96 97 97 96 97 98 98 98 96 94
82 81 86 87 86 84 84 91 85 91 94 94 93 95 97 97 97 98 98 98 98 97
85 85 86 86 86 84 85 90 83 92 95 95 95 97 96 96 97 96 96 96 97 96
85 86 86 85 85 86 86 92 92 93 94 94 94 96 97 97 97 97 96 96 95 95
81 80 83 84 84 85 88 90 94 94 94 93 95 97 98 97 97 98 98 97 96 95
80 80 82 84 84 83 87 91 95 96 95 98 96 100 100 97 96 96 98 98 98 96
81 83 83 82 82 84 89 91 95 95 96 98 96 100 100 100 96 97 97 97 98 99
84 84 83 85 86 87 89 92 96 96 97 97 97 100 100 100 98 98 98 98 98 98
86 87 86 89 92 90 92 93 96 95 98 98 99 100 100 100 98 99 100 99 99 99
87 88 89 92 94 92 94 98 99 99 100 100 99 100 100 100 98 99 99 99 99 100
87 89 88 90 92 94 96 97 99 98 99 98 99 99 100 100 98 98 99 100 100 100

GFSNIL_sfc_rhum_129.txt.gz
RH
79 78 74 75 72 77 83 83 83 87 89 91 93 96 95 95 94 94 94 88 84 90
71 70 70 71 69 68 70 67 72 91 95 94 94 94 95 95 93 92 94 91 89 88
70 71 69 70 73 72 72 72 73 75 77 90 92 93 95 95 92 93 90 90 90 90
71 72 71 73 74 75 74 72 73 73 74 74 78 91 95 95 93 95 92 91 91 92
73 71 74 74 74 75 74 72 72 73 75 73 76 73 89 95 95 94 93 90 91 90
76 78 76 76 75 75 75 73 73 72 76 77 76 76 77 88 93 92 89 89 90 87
77 75 73 73 75 76 75 76 72 73 75 78 80 82 78 75 92 91 88 90 90 86
75 73 74 76 75 76 78 76 74 73 73 75 78 87 87 81 91 92 86 92 91 90
74 73 75 75 75 75 76 77 78 77 75 77 74 95 100 95 91 92 91 95 96 94
74 74 76 74 73 77 81 82 83 82 81 80 84 98 100 100 92 95 92 93 98 98
77 77 76 76 77 80 83 86 87 86 85 86 84 98 100 100 95 96 92 95 97 96
78 77 76 79 80 82 85 86 86 85 89 95 94 99 100 99 98 98 97 96 96 95
76 77 78 82 81 78 82 85 84 87 91 93 94 95 98 99 98 99 99 100 98 100
79 80 77 79 78 77 80 83 88 89 90 92 94 91 96 99 98 98 99 100 100 100

GFSNIL_sfc_rhum_132.txt.gz
RH
81 88 79 80 90 91 88 82 77 76 71 71 77 74 83 87 90 91 94 90 84 74
74 71 70 69 69 68 68 63 73 72 66 66 69 79 82 86 89 93 91 89 85 79
57 59 60 61 60 61 58 57 58 63 68 79 87 87 89 92 92 93 93 89 86 81
60 59 59 60 60 62 63 58 58 57 56 57 62 76 90 94 95 96 94 93 92 88
63 61 63 63 63 68 61 58 59 56 57 56 54 57 60 72 88 94 95 92 93 92
66 62 63 64 69 64 65 64 58 55 58 57 58 57 58 60 62 77 86 88 91 90
68 68 67 66 67 64 62 62 60 59 59 61 59 57 59 58 60 63 71 86 81 85
70 64 62 63 62 63 65 63 61 64 63 62 58 55 62 68 72 64 68 76 76 85
64 63 67 66 62 63 66 66 70 71 71 71 59 75 88 90 87 78 69 72 84 87
67 65 68 62 60 65 70 72 73 74 72 75 75 85 90 94 84 87 82 74 82 91
65 64 62 63 66 69 69 72 76 77 77 81 77 91 95 95 88 93 93 83 81 89
67 64 64 68 70 69 69 71 73 73 78 85 84 90 93 92 90 96 95 90 91 89
66 66 69 70 70 69 67 65 66 71 79 84 86 90 94 92 92 98 98 98 94 100
75 72 70 71 68 69 70 69 74 74 77 80 85 87 90 93 92 97 100 100 100 100